Date,TemperatureHighF,TemperatureAvgF,TemperatureLowF,DewpointHighF,DewpointAvgF,DewpointLowF,HumidityHigh,HumidityAvg,HumidityLow,PressureMaxIn,PressureMinIn,WindSpeedMaxMPH,WindSpeedAvgMPH,GustSpeedMaxMPH,PrecipitationSumIn
2013-1-1,20.0,14.8,8.0,15.0,9.0,4.0,85,77,68,30.30,30.16,8,3,0,0.00
2013-1-2,32.0,18.9,6.0,24.0,12.7,3.0,87,77,59,30.26,30.12,6,2,0,0.00
2013-1-3,29.0,25.0,15.0,26.0,20.6,11.0,90,83,69,30.34,30.14,15,8,0,0.00
2013-1-4,33.0,22.3,11.0,26.0,17.9,8.0,88,83,74,30.34,30.23,14,8,0,0.00
2013-1-5,36.0,29.7,20.0,34.0,26.8,17.0,94,89,78,30.27,29.97,12,4,0,0.00
2013-1-6,35.0,23.1,17.0,33.0,20.0,14.0,92,88,84,30.36,29.97,16,8,0,0.00
2013-1-7,40.0,28.1,15.0,29.0,22.9,13.0,93,81,60,30.36,30.11,8,3,0,0.00
2013-1-8,47.0,35.8,27.0,34.0,29.2,24.0,88,77,59,30.15,30.03,8,2,0,0.00
2013-1-9,46.0,37.4,28.0,36.0,30.9,24.0,88,78,61,30.50,30.04,13,6,0,0.00
2013-1-10,42.0,33.6,26.0,39.0,29.4,23.0,98,86,59,30.50,29.82,8,4,0,0.00
2013-1-11,52.0,47.7,40.0,49.0,46.2,39.0,99,95,86,29.85,29.65,11,4,0,0.00
2013-1-12,53.0,38.1,24.0,48.0,34.1,22.0,92,85,79,30.00,29.69,14,7,0,0.00
2013-1-13,24.0,17.8,12.0,22.0,13.6,8.0,93,84,77,30.31,29.93,12,8,0,0.00
2013-1-14,23.0,14.7,9.0,14.0,9.9,6.0,90,81,65,30.50,30.31,6,2,0,0.00
2013-1-15,30.0,19.1,11.0,19.0,13.8,8.0,91,80,59,30.48,30.16,2,0,0,0.00
2013-1-16,35.0,26.4,14.0,30.0,20.1,11.0,92,77,61,30.17,29.89,13,5,0,0.00
2013-1-17,35.0,28.5,23.0,32.0,22.3,15.0,87,77,63,30.39,30.08,10,6,0,0.00
2013-1-19,43.0,37.4,27.0,35.0,28.8,16.0,75,71,61,30.06,29.84,19,14,0,0.00
2013-1-20,26.0,16.4,12.0,17.0,9.1,5.0,81,72,65,30.35,30.03,17,10,0,0.00
2013-1-21,14.0,8.4,4.0,9.0,0.1,-7.0,83,69,53,30.37,30.23,16,11,0,0.00
2013-1-22,13.0,7.1,0.0,3.0,-1.6,-7.0,79,67,58,30.47,30.36,12,7,0,0.00
2013-1-23,27.0,17.6,12.0,15.0,7.9,3.0,80,65,58,30.42,30.15,14,4,0,0.00
2013-1-24,21.0,14.2,5.0,10.0,3.8,-3.0,73,63,54,30.68,30.35,7,2,0,0.00
2013-1-25,35.0,24.0,18.0,23.0,15.9,8.0,89,71,58,30.36,30.01,16,5,0,0.00
2013-1-26,29.0,20.3,10.0,17.0,11.9,6.0,87,70,52,30.43,30.25,5,1,0,0.00
2013-1-27,40.0,29.6,25.0,38.0,25.3,16.0,98,84,64,30.38,29.88,5,1,0,0.00
2013-1-28,51.0,43.3,39.0,47.0,42.4,38.0,99,98,97,29.95,29.73,8,4,0,0.00
2013-1-29,64.0,55.6,43.0,61.0,54.4,41.0,100,96,89,29.74,29.38,7,4,0,0.00
2013-1-30,42.0,30.8,17.0,41.0,29.3,13.0,98,95,82,29.73,29.24,12,3,0,0.00
2013-1-31,17.0,9.4,3.0,13.0,4.1,-4.0,92,79,75,30.29,29.73,17,14,0,0.00
2013-2-1,19.0,7.3,0.0,15.0,1.7,-5.0,89,77,73,30.45,30.21,14,7,0,0.00
2013-2-2,25.0,18.2,10.0,22.0,14.5,6.0,92,85,74,30.22,30.05,11,4,0,0.00
2013-2-3,24.0,19.6,13.0,18.0,15.4,9.0,95,83,70,30.11,29.99,15,5,0,0.00
2013-2-4,30.0,24.2,15.0,25.0,20.1,12.0,89,84,78,30.02,29.83,7,2,0,0.00
2013-2-5,34.0,25.8,14.0,30.0,22.6,11.0,100,88,83,30.12,29.84,13,4,0,0.00
2013-2-6,43.0,33.0,22.0,34.0,27.6,19.0,89,81,70,30.22,30.06,4,1,0,0.00
2013-2-7,35.0,33.4,31.0,34.0,32.3,28.0,98,96,86,30.09,29.87,10,2,0,0.00
2013-2-8,31.0,25.4,23.0,29.0,22.3,20.0,93,88,85,30.40,30.03,11,4,0,0.00
2013-2-9,34.0,29.2,25.0,30.0,26.0,22.0,94,88,81,30.40,30.05,5,1,0,0.00
2013-2-10,48.0,39.9,33.0,46.0,37.5,30.0,98,92,71,30.06,29.45,15,5,0,0.00
2013-2-11,41.0,32.4,29.0,34.0,26.3,23.0,83,78,73,30.09,29.54,22,16,0,0.00
2013-2-12,33.0,28.2,25.0,27.0,23.9,21.0,92,84,76,30.14,29.93,13,5,0,0.00
2013-2-13,43.0,33.4,24.0,36.0,29.5,22.0,95,86,71,29.93,29.74,10,3,0,0.00
2013-2-14,40.0,36.3,32.0,33.0,31.0,28.0,93,81,65,30.01,29.67,15,7,0,0.00
2013-2-15,32.0,26.7,20.0,30.0,19.2,11.0,93,74,56,30.23,30.01,11,8,0,0.00
2013-2-16,24.0,18.5,14.0,16.0,11.0,7.0,80,72,65,30.24,30.16,12,5,0,0.00
2013-2-17,34.0,23.0,10.0,24.0,14.9,6.0,84,71,58,30.24,29.94,4,1,0,0.00
2013-2-18,51.0,37.7,23.0,46.0,32.3,19.0,96,81,68,29.95,29.44,20,6,0,0.00
2013-2-19,23.0,14.6,10.0,20.0,9.8,4.0,88,81,75,30.29,29.70,22,15,0,0.00
2013-2-20,19.0,12.5,5.0,14.0,7.6,0.0,85,80,77,30.46,30.29,10,5,0,0.00
2013-2-21,30.0,21.8,13.0,26.0,18.6,10.0,95,87,81,30.42,29.94,15,5,0,0.00
2013-2-22,33.0,27.5,24.0,31.0,25.2,21.0,96,91,84,29.97,29.80,14,7,0,0.00
2013-2-23,28.0,23.4,19.0,22.0,18.8,15.0,89,83,76,30.01,29.96,10,7,0,0.00
2013-2-24,39.0,25.5,13.0,26.0,20.0,11.0,93,81,57,30.15,30.01,3,0,0,0.00
2013-2-25,41.0,31.7,23.0,33.0,27.3,21.0,93,84,69,30.16,29.92,7,2,0,0.00
2013-2-26,34.0,32.5,31.0,31.0,29.9,28.0,97,90,78,29.93,29.52,11,5,0,0.00
2013-2-27,32.0,30.6,29.0,31.0,29.2,27.0,97,95,93,29.79,29.57,9,7,0,0.00
2013-2-28,34.0,32.1,29.0,31.0,29.4,25.0,95,90,84,30.09,29.79,8,5,0,0.00
2013-3-1,29.0,25.9,24.0,25.0,21.6,18.0,87,83,79,30.25,30.09,9,4,0,0.00
2013-3-2,25.0,20.3,10.0,19.0,14.5,8.0,91,78,64,30.27,30.21,9,4,0,0.00
2013-3-3,34.0,20.4,8.0,16.0,12.3,5.0,92,73,44,30.22,30.11,3,0,0,0.00
2013-3-4,32.0,27.6,21.0,27.0,22.1,14.0,86,80,74,30.13,29.94,14,6,0,0.00
2013-3-5,32.0,29.9,26.0,31.0,28.6,25.0,97,95,87,30.08,29.83,7,2,0,0.00
2013-3-6,29.0,26.4,23.0,26.0,23.7,21.0,100,90,85,30.35,30.08,12,4,0,0.00
2013-3-7,36.0,28.0,22.0,26.0,23.2,19.0,90,83,67,30.44,30.35,5,2,0,0.00
2013-3-8,40.0,29.4,17.0,32.0,25.1,16.0,94,84,68,30.47,30.27,6,2,0,0.00
2013-3-9,40.0,36.4,33.0,37.0,33.5,29.0,93,89,85,30.27,29.81,8,2,0,0.00
2013-3-10,45.0,42.2,37.0,45.0,41.4,35.0,99,98,91,29.84,29.58,3,0,0,0.00
2013-3-11,42.0,34.8,30.0,42.0,33.7,27.0,99,96,88,29.87,29.58,15,8,0,0.00
2013-3-12,35.0,29.7,26.0,32.0,25.8,20.0,95,85,73,30.10,29.86,15,11,0,0.00
2013-3-13,33.0,27.4,23.0,22.0,20.1,18.0,87,74,53,30.37,30.10,12,8,0,0.00
2013-3-14,39.0,30.5,24.0,33.0,26.2,21.0,94,84,72,30.37,30.07,8,1,0,0.00
2013-3-15,45.0,36.3,29.0,39.0,33.3,27.0,97,89,74,30.08,29.71,8,1,0,0.00
2013-3-16,35.0,32.1,29.0,32.0,29.4,25.0,98,90,80,30.14,29.69,9,4,0,0.00
2013-3-17,36.0,31.2,26.0,29.0,24.9,18.0,87,77,67,30.21,29.94,8,4,0,0.00
2013-3-18,36.0,29.9,23.0,34.0,26.8,14.0,96,88,73,29.96,29.67,21,9,0,0.00
2013-3-19,34.0,24.9,17.0,22.0,16.4,10.0,78,70,56,30.16,29.89,21,13,0,0.00
2013-3-20,27.0,20.3,13.0,20.0,11.5,5.0,78,68,62,30.20,30.10,16,13,0,0.00
2013-3-21,32.0,22.3,12.0,20.0,13.7,8.0,85,70,53,30.14,30.04,7,3,0,0.00
2013-3-22,41.0,28.8,18.0,25.0,20.4,16.0,94,72,50,30.10,30.02,5,1,0,0.00
2013-3-23,43.0,34.1,25.0,28.0,25.1,22.0,87,70,51,30.13,30.00,6,1,0,0.00
2013-3-24,34.0,31.1,29.0,31.0,28.2,26.0,96,89,78,30.03,29.69,8,3,0,0.00
2013-3-25,35.0,30.9,27.0,29.0,26.2,22.0,96,82,75,30.14,29.78,12,7,0,0.00
2013-3-26,38.0,33.7,31.0,29.0,26.9,25.0,86,76,65,30.29,30.14,9,4,0,0.00
2013-3-27,44.0,35.9,30.0,30.0,26.9,24.0,84,71,51,30.36,30.30,7,3,0,0.00
2013-3-28,51.0,38.1,26.0,34.0,29.1,24.0,94,72,46,30.38,30.27,5,1,0,0.00
2013-3-29,55.0,44.1,35.0,38.0,33.4,29.0,85,67,45,30.32,30.21,2,0,0,0.00
2013-3-30,57.0,45.1,31.0,43.0,35.0,-99.9,86,71,54,30.23,29.85,8,3,0,0.00
2013-3-31,56.0,46.6,37.0,44.0,38.7,27.0,94,75,46,29.93,29.76,17,9,0,0.00
2013-4-1,39.0,33.4,28.0,27.0,22.4,19.0,85,65,45,30.23,29.93,12,7,0,0.00
2013-4-2,44.0,33.2,23.0,23.0,19.9,15.0,87,61,35,30.33,30.23,11,5,0,0.00
2013-4-3,48.0,35.6,23.0,23.0,20.0,16.0,88,56,28,30.47,30.32,4,1,0,0.00
2013-4-4,59.0,43.1,26.0,36.0,25.5,19.0,80,53,27,30.32,29.99,8,2,0,0.00
2013-4-5,56.0,44.4,33.0,37.0,28.7,19.0,84,57,30,30.22,30.03,10,2,0,0.00
2013-4-6,69.0,51.5,35.0,50.0,35.3,19.0,81,56,34,30.09,29.59,12,5,0,0.00
2013-4-7,64.0,52.2,40.0,47.0,42.4,37.0,90,71,47,29.93,29.67,13,4,0,0.00
2013-4-8,71.0,57.9,43.0,58.0,50.9,38.0,98,79,58,29.87,29.57,20,6,0,0.00
2013-4-9,75.0,56.7,44.0,64.0,52.0,41.0,95,85,64,29.89,29.75,10,5,0,0.00
2013-4-10,44.0,41.7,37.0,42.0,40.0,36.0,97,94,91,29.95,29.74,12,6,0,0.00
2013-4-11,48.0,42.9,38.0,47.0,41.3,34.0,98,95,84,29.76,29.57,15,6,0,0.00
2013-4-12,41.0,37.9,36.0,38.0,34.0,32.0,95,86,78,29.90,29.59,16,9,0,0.00
2013-4-13,47.0,40.0,34.0,37.0,33.0,28.0,92,77,61,29.98,29.89,14,7,0,0.00
2013-4-14,74.0,55.9,41.0,54.0,44.3,35.0,84,67,42,29.97,29.57,11,6,0,0.00
2013-4-15,65.0,54.2,42.0,56.0,49.5,38.0,98,85,62,29.99,29.60,12,5,0,0.00
2013-4-16,52.0,45.0,37.0,43.0,38.2,35.0,94,78,60,30.23,29.95,10,3,0,0.00
2013-4-17,53.0,44.3,42.0,52.0,40.9,36.0,99,88,76,30.26,29.71,17,6,0,0.00
2013-4-18,61.0,51.6,38.0,60.0,50.1,34.0,99,95,84,29.73,29.39,21,8,0,0.00
2013-4-19,38.0,36.2,35.0,34.0,30.7,29.0,86,80,74,29.99,29.54,20,16,0,0.00
2013-4-20,46.0,37.5,30.0,33.0,29.0,26.0,92,73,47,30.38,29.99,11,4,0,0.00
2013-4-21,56.0,44.4,34.0,43.0,34.7,29.0,85,69,56,30.47,30.28,7,3,0,0.00
2013-4-22,66.0,53.3,38.0,46.0,39.9,34.0,87,63,40,30.29,29.99,5,1,0,0.00
2013-4-23,54.0,44.1,37.0,49.0,42.2,35.0,99,93,74,30.02,29.90,10,4,0,0.00
2013-4-24,50.0,41.5,34.0,37.0,33.3,31.0,96,74,52,30.14,29.98,11,5,0,0.00
2013-4-25,52.0,44.2,37.0,37.0,30.6,25.0,87,61,36,30.31,30.09,17,8,0,0.00
2013-4-26,65.0,52.6,38.0,50.0,41.5,31.0,84,67,54,30.32,30.22,10,3,0,0.00
2013-4-27,65.0,54.5,43.0,51.0,46.6,41.0,97,76,51,30.28,29.97,3,0,0,0.00
2013-4-28,69.0,57.7,51.0,55.0,51.2,49.0,94,80,54,29.97,29.79,5,1,0,0.00
2013-4-29,75.0,62.8,49.0,60.0,54.4,46.0,93,76,55,29.89,29.68,7,2,0,0.00
2013-4-30,85.0,72.5,61.0,63.0,57.6,53.0,91,63,36,29.87,29.70,10,4,0,0.00
2013-5-1,84.0,72.9,61.0,59.0,55.0,51.0,80,56,35,30.06,29.87,8,2,0,0.00
2013-5-2,67.0,55.4,45.0,57.0,49.4,42.0,91,80,64,30.17,30.04,8,3,0,0.00
2013-5-3,55.0,46.9,41.0,54.0,45.7,39.0,97,95,92,30.10,29.85,9,4,0,0.00
2013-5-4,70.0,57.9,50.0,58.0,54.1,49.0,97,88,65,30.01,29.88,9,3,0,0.00
2013-5-5,73.0,60.8,49.0,57.0,50.6,43.0,98,74,35,30.01,29.90,11,2,0,0.00
2013-5-6,75.0,64.0,55.0,51.0,46.2,40.0,84,56,31,30.01,29.92,5,1,0,0.00
2013-5-7,79.0,64.3,45.0,51.0,41.6,36.0,94,49,22,30.03,29.93,3,0,0,0.00
2013-5-8,81.0,67.1,51.0,55.0,48.7,44.0,83,55,28,30.00,29.92,4,0,0,0.00
2013-5-9,70.0,62.5,60.0,63.0,58.0,50.0,98,86,59,29.92,29.76,5,1,0,0.00
2013-5-10,61.0,51.0,47.0,60.0,47.3,-99.9,98,92,86,29.98,29.75,6,2,0,0.00
2013-5-11,59.0,50.6,42.0,52.0,37.8,-99.9,97,68,32,30.08,29.87,17,7,0,0.00
2013-5-12,58.0,46.6,36.0,32.0,28.9,24.0,78,53,30,30.16,30.08,13,5,0,0.00
2013-5-13,70.0,53.9,34.0,42.0,32.1,25.0,89,49,22,30.18,29.97,9,2,0,0.00
2013-5-14,93.0,73.5,55.0,64.0,53.0,41.0,72,51,27,29.97,29.62,12,4,0,0.00
2013-5-15,84.0,75.7,61.0,57.0,51.0,44.0,65,43,26,29.80,29.64,16,6,0,0.00
2013-5-16,85.0,66.3,56.0,59.0,32.3,-99.9,77,50,26,29.91,29.79,4,1,0,0.00
2013-5-17,80.0,68.6,61.0,66.0,56.7,-99.9,92,77,55,29.97,29.88,8,1,0,0.00
2013-5-18,77.0,64.2,57.0,67.0,60.7,55.0,96,89,67,29.99,29.93,2,1,0,0.00
2013-5-19,89.0,80.4,68.0,70.0,65.6,57.0,78,62,42,29.75,29.66,11,2,0,0.00
2013-5-20,85.0,73.2,62.0,69.0,62.3,58.0,96,71,46,29.77,29.62,16,4,0,0.00
2013-5-21,78.0,69.7,62.0,66.0,62.4,60.0,97,79,57,29.67,29.61,12,4,0,0.00
2013-5-22,70.0,64.4,59.0,63.0,59.2,55.0,95,84,66,29.74,29.58,10,4,0,0.00
2013-5-23,61.0,56.7,50.0,56.0,52.2,45.0,97,85,67,30.25,29.74,7,2,0,0.00
2013-5-24,65.0,51.2,38.0,47.0,41.5,34.0,93,71,45,30.43,30.25,4,1,0,0.00
2013-5-25,54.0,50.2,46.0,50.0,44.4,39.0,93,81,66,30.39,30.23,3,0,0,0.00
2013-5-26,59.0,52.2,47.0,56.0,49.5,43.0,98,90,79,30.26,30.06,5,1,0,0.00
2013-5-27,69.0,62.3,55.0,65.0,60.4,54.0,99,94,85,30.07,29.77,4,1,0,0.00
2013-5-28,75.0,68.5,62.0,71.0,65.8,61.0,98,91,79,29.82,29.66,14,3,0,0.00
2013-5-29,84.0,72.5,61.0,72.0,66.1,60.0,96,81,60,29.88,29.69,11,2,0,0.00
2013-5-30,83.0,72.6,62.0,72.0,66.7,60.0,98,82,67,29.84,29.68,15,3,0,0.00
2013-5-31,73.0,67.1,62.0,69.0,64.4,61.0,98,92,80,29.80,29.65,7,1,0,0.00
2013-6-1,75.0,68.1,62.0,69.0,62.1,-99.9,94,85,65,29.73,29.62,11,4,0,0.00
2013-6-2,64.0,58.5,51.0,60.0,53.1,47.0,94,83,70,30.02,29.73,8,3,0,0.00
2013-6-3,67.0,56.8,45.0,52.0,48.4,44.0,98,76,55,30.11,30.01,1,0,0,0.00
2013-6-4,73.0,61.8,49.0,57.0,51.8,47.0,95,71,48,30.13,30.01,4,1,0,0.00
2013-6-5,74.0,63.3,56.0,62.0,55.2,50.0,90,75,61,30.05,29.86,4,2,0,0.00
2013-6-6,70.0,60.8,55.0,62.0,55.5,50.0,95,84,69,29.91,29.83,5,2,0,0.00
2013-6-7,72.0,62.2,53.0,57.0,52.7,49.0,89,72,53,29.92,29.86,5,2,0,0.00
2013-6-8,76.0,64.3,49.0,57.0,51.7,47.0,97,66,43,29.95,29.90,3,1,0,0.00
2013-6-9,80.0,68.0,58.0,64.0,58.8,51.0,94,74,49,29.94,29.74,9,2,0,0.00
2013-6-10,77.0,67.6,58.0,65.0,61.6,57.0,98,82,64,29.84,29.71,8,2,0,0.00
2013-6-11,87.0,73.6,59.0,71.0,65.2,58.0,97,77,54,29.89,29.76,3,0,0,0.00
2013-6-12,92.0,79.7,69.0,75.0,71.3,67.0,94,77,53,29.84,29.52,11,3,0,0.00
2013-6-13,79.0,71.1,63.0,67.0,60.8,57.0,95,72,48,29.98,29.60,4,1,0,0.00
2013-6-14,78.0,67.2,53.0,63.0,57.1,51.0,95,72,50,30.10,29.94,3,0,0,0.00
2013-6-15,81.0,70.9,64.0,71.0,64.6,59.0,94,81,67,30.00,29.82,13,2,0,0.00
2013-6-16,84.0,73.2,63.0,69.0,65.9,62.0,96,79,51,29.91,29.84,9,2,0,0.00
2013-6-17,87.0,76.3,61.0,68.0,62.6,58.0,96,66,38,29.91,29.82,5,1,0,0.00
2013-6-18,77.0,68.9,59.0,63.0,58.9,54.0,87,71,58,30.02,29.83,5,3,0,0.00
2013-6-19,83.0,69.3,55.0,63.0,56.0,48.0,82,64,41,30.09,30.00,3,1,0,0.00
2013-6-20,88.0,72.7,62.0,69.0,60.7,55.0,83,68,42,30.09,30.03,3,1,0,0.00
2013-6-22,81.0,77.4,71.0,76.0,72.1,67.0,88,84,78,30.04,29.90,4,1,0,0.00
2013-6-23,87.0,73.1,66.0,74.0,68.1,64.0,96,85,63,29.98,29.84,6,1,0,0.00
2013-6-24,85.0,69.5,65.0,76.0,67.2,64.0,98,93,72,30.07,29.85,12,1,0,0.00
2013-6-25,83.0,75.0,66.0,77.0,71.3,65.0,99,89,75,29.90,29.74,5,0,0,0.00
2013-6-26,84.0,74.6,68.0,76.0,70.4,66.0,96,87,72,29.78,29.67,4,1,0,0.00
2013-6-27,86.0,77.7,70.0,76.0,70.6,62.0,98,80,58,29.78,29.69,10,4,0,0.00
2013-6-28,80.0,72.6,63.0,67.0,63.0,60.0,93,73,57,29.73,29.60,9,4,0,0.00
2013-6-29,69.0,65.5,63.0,66.0,62.8,58.0,97,91,80,29.75,29.58,3,1,0,0.00
2013-6-30,78.0,69.8,61.0,64.0,58.5,48.0,88,68,50,29.96,29.75,3,1,0,0.00
2013-7-1,78.0,67.3,58.0,57.0,52.4,48.0,77,60,42,30.03,29.94,3,1,0,0.00
2013-7-2,75.0,66.2,58.0,59.0,53.5,47.0,82,65,40,30.05,30.00,2,0,0,0.00
2013-7-3,76.0,63.8,54.0,62.0,56.9,52.0,96,80,53,30.05,29.99,1,0,0,0.00
2013-7-4,84.0,71.5,58.0,69.0,62.7,57.0,97,76,47,30.06,29.97,2,0,0,0.00
2013-7-5,85.0,73.9,62.0,70.0,63.3,59.0,92,71,45,30.04,29.96,1,0,0,0.00
2013-7-6,85.0,71.9,62.0,71.0,65.3,60.0,96,81,58,30.01,29.92,2,0,0,0.00
2013-7-7,89.0,78.6,68.0,74.0,70.2,66.0,94,77,55,29.96,29.89,3,0,0,0.00
2013-7-8,86.0,75.8,70.0,77.0,70.3,-99.9,96,86,68,30.00,29.90,6,1,0,0.00
2013-7-9,86.0,78.0,72.0,79.0,74.8,70.0,98,90,78,29.98,29.82,6,0,0,0.00
2013-7-10,81.0,75.7,63.0,76.0,66.8,-99.9,96,78,58,29.97,29.79,5,1,0,0.00
2013-7-11,79.0,69.2,58.0,65.0,59.7,56.0,98,75,47,30.07,29.97,2,0,0,0.00
2013-7-12,82.0,69.9,56.0,65.0,58.9,54.0,95,71,45,30.12,30.03,1,0,0,0.00
2013-7-13,82.0,71.4,58.0,67.0,62.1,55.0,96,75,54,30.12,30.04,1,0,0,0.00
2013-7-14,87.0,75.9,64.0,74.0,68.3,62.0,94,78,61,30.14,30.08,2,0,0,0.00
2013-7-15,88.0,79.7,70.0,77.0,72.9,68.0,93,80,65,30.21,30.14,2,0,0,0.00
2013-7-16,90.0,81.1,72.0,78.0,74.8,71.0,98,82,63,30.25,30.19,1,0,0,0.00
2013-7-17,92.0,81.2,70.0,79.0,74.3,68.0,97,81,61,30.27,30.13,1,0,0,0.00
2013-7-18,91.0,82.1,71.0,80.0,74.9,70.0,98,80,62,30.14,29.92,3,0,0,0.00
2013-7-19,91.0,83.5,74.0,77.0,73.2,68.0,85,72,54,29.92,29.72,5,2,0,0.00
2013-7-20,86.0,76.2,67.0,70.0,65.7,-99.9,93,73,50,29.87,29.77,2,0,0,0.00
2013-7-21,84.0,73.8,65.0,73.0,68.5,63.0,98,85,66,29.91,29.81,3,0,0,0.00
2013-7-22,86.0,75.1,65.0,74.0,69.1,64.0,98,83,64,29.83,29.70,10,0,0,0.00
2013-7-23,77.0,69.5,62.0,68.0,62.7,57.0,97,80,56,29.93,29.69,4,1,0,0.00
2013-7-24,74.0,64.8,55.0,60.0,55.5,53.0,95,74,48,30.03,29.93,3,0,0,0.00
2013-7-25,80.0,67.3,52.0,64.0,57.7,50.0,96,73,52,30.08,30.00,1,0,0,0.00
2013-7-26,75.0,66.4,58.0,70.0,62.8,56.0,96,88,66,30.01,29.86,4,0,0,0.00
2013-7-27,63.0,58.6,54.0,56.0,53.1,49.0,97,83,61,29.94,29.88,6,1,0,0.00
2013-7-28,70.0,59.9,51.0,56.0,52.0,48.0,94,77,57,30.03,29.89,5,1,0,0.00
2013-7-29,77.0,62.8,48.0,62.0,55.2,47.0,97,79,54,30.13,30.02,1,0,0,0.00
2013-7-30,66.0,62.7,58.0,65.0,61.2,56.0,99,95,88,30.13,30.02,1,0,0,0.00
2013-7-31,76.0,68.3,65.0,69.0,66.1,62.0,99,93,76,30.02,29.93,1,0,0,0.00
2013-8-1,79.0,68.3,57.0,65.0,60.6,56.0,99,79,49,30.00,29.91,5,1,0,0.00
2013-8-2,82.0,72.6,65.0,73.0,66.9,61.0,97,83,67,29.91,29.82,4,1,0,0.00
2013-8-3,78.0,69.9,61.0,65.0,60.6,56.0,97,74,47,30.08,29.91,2,0,0,0.00
2013-8-4,79.0,67.5,54.0,63.0,57.4,53.0,97,73,43,30.16,30.06,1,0,0,0.00
2013-8-5,73.0,65.2,57.0,67.0,61.9,55.0,97,89,79,30.08,29.84,2,0,0,0.00
2013-8-6,83.0,73.5,65.0,76.0,70.2,64.0,99,90,76,29.86,29.78,1,0,0,0.00
2013-8-7,84.0,76.5,69.0,77.0,71.0,64.0,98,84,60,29.90,29.76,2,0,0,0.00
2013-8-8,79.0,70.4,63.0,68.0,64.4,61.0,97,82,64,29.97,29.90,4,0,0,0.00
2013-8-9,80.0,69.8,57.0,70.0,63.8,56.0,98,82,65,30.03,29.95,1,0,0,0.00
2013-8-10,78.0,67.0,57.0,66.0,60.0,56.0,98,81,51,30.10,30.03,3,0,0,0.00
2013-8-11,81.0,68.7,53.0,69.0,61.7,52.0,99,80,59,30.11,30.00,2,0,0,0.00
2013-8-12,81.0,72.6,65.0,72.0,66.5,62.0,93,81,67,30.01,29.85,3,1,0,0.00
2013-8-13,72.0,62.9,52.0,62.0,52.1,-99.9,94,73,45,30.12,29.91,3,0,0,0.00
2013-8-14,74.0,59.7,46.0,56.0,51.1,45.0,98,76,46,30.21,30.12,2,0,0,0.00
2013-8-15,75.0,57.5,51.0,59.0,41.9,-99.9,96,75,51,30.16,30.08,1,0,0,0.00
2013-8-16,80.0,65.2,50.0,62.0,52.8,-99.9,99,72,45,30.16,30.10,1,0,0,0.00
2013-8-17,80.0,66.4,55.0,62.0,56.1,-99.9,93,73,47,30.20,30.12,2,0,0,0.00
2013-8-18,81.0,67.1,51.0,65.0,58.2,50.0,99,76,46,30.18,30.07,1,0,0,0.00
2013-8-19,83.0,66.1,56.0,69.0,52.3,-99.9,98,80,56,30.10,30.00,1,0,0,0.00
2013-8-20,86.0,73.2,63.0,71.0,64.5,-99.9,97,78,53,30.07,29.98,2,0,0,0.00
2013-8-21,88.0,75.8,66.0,72.0,68.0,64.0,95,79,56,30.04,29.94,3,0,0,0.00
2013-8-22,75.0,71.0,66.0,70.0,67.9,64.0,97,90,78,30.11,29.96,5,0,0,0.00
2013-8-23,81.0,70.3,61.0,70.0,63.7,57.0,99,81,55,30.14,30.06,3,0,0,0.00
2013-8-24,85.0,70.2,57.0,72.0,62.2,-99.9,93,79,61,30.22,30.11,1,0,0,0.00
2013-8-25,87.0,80.3,68.0,73.0,70.3,66.0,92,73,59,30.16,30.10,2,0,0,0.00
2013-8-26,89.0,77.4,65.0,78.0,70.6,62.0,92,80,66,30.12,29.95,2,0,0,0.00
2013-8-27,91.0,79.0,73.0,77.0,73.0,70.0,92,82,63,29.96,29.86,4,1,0,0.00
2013-8-28,92.0,83.8,73.0,80.0,76.3,70.0,90,79,67,29.97,29.88,3,1,0,0.00
2013-8-29,84.0,73.4,67.0,75.0,69.8,66.0,99,89,72,30.03,29.93,2,1,0,0.00
2013-8-30,94.0,79.3,68.0,79.0,72.3,66.0,98,82,51,29.93,29.72,4,0,0,0.00
2013-8-31,82.0,73.2,69.0,73.0,67.9,-99.9,96,86,74,29.79,29.72,4,1,0,0.00
2013-9-1,87.0,73.2,60.0,75.0,67.2,59.0,99,83,59,29.80,29.69,3,0,0,0.00
2013-9-2,78.0,67.0,58.0,66.0,60.2,54.0,98,80,54,29.97,29.80,4,0,0,0.00
2013-9-3,77.0,62.6,49.0,63.0,55.6,48.0,99,80,53,30.08,29.97,1,0,0,0.00
2013-9-4,84.0,65.8,50.0,66.0,57.0,49.0,100,77,43,30.12,30.02,2,0,0,0.00
2013-9-5,81.0,68.7,60.0,71.0,62.1,53.0,94,80,62,30.17,30.08,4,1,0,0.00
2013-9-6,87.0,70.5,57.0,69.0,60.8,53.0,90,73,51,30.17,29.97,2,0,0,0.00
2013-9-7,86.0,72.6,63.0,73.0,64.5,-99.9,93,79,55,29.98,29.84,4,0,0,0.00
2013-9-8,84.0,74.9,69.0,73.0,69.5,67.0,95,84,67,29.95,29.86,4,1,0,0.00
2013-9-9,96.0,80.3,67.0,77.0,71.7,66.0,99,78,52,29.88,29.77,2,0,0,0.00
2013-9-10,94.0,83.1,70.0,70.0,67.2,63.0,79,60,42,29.97,29.85,4,1,0,0.00
2013-9-11,90.0,78.3,70.0,72.0,68.1,65.0,91,72,52,30.00,29.94,3,1,0,0.00
2013-9-12,80.0,70.7,56.0,68.0,58.3,50.0,97,69,38,30.06,29.95,6,1,0,0.00
2013-9-13,70.0,58.7,50.0,51.0,44.0,35.0,87,62,29,30.18,30.05,2,0,0,0.00
2013-9-14,73.0,56.7,41.0,50.0,43.6,-99.9,96,67,35,30.17,30.00,3,0,0,0.00
2013-9-15,61.0,56.8,53.0,59.0,52.9,46.0,96,87,74,30.15,29.96,0,0,0,0.00
2013-9-16,69.0,58.5,49.0,54.0,50.9,45.0,96,78,50,30.34,30.15,3,1,0,0.00
2013-9-17,71.0,57.6,45.0,59.0,51.7,43.0,97,82,65,30.30,30.07,3,0,0,0.00
2013-9-18,72.0,61.6,58.0,69.0,57.6,54.0,94,87,76,30.07,29.89,0,0,0,0.00
2013-9-19,91.0,78.7,67.0,72.0,69.3,65.0,95,75,51,29.89,29.71,4,1,0,0.00
2013-9-20,71.0,65.0,56.0,66.0,59.8,52.0,98,84,56,29.85,29.73,6,2,0,0.00
2013-9-21,69.0,56.8,49.0,53.0,48.4,-99.9,97,77,48,29.93,29.83,4,1,0,0.00
2013-9-22,71.0,55.5,41.0,51.0,47.1,40.0,99,76,46,30.05,29.93,2,0,0,0.00
2013-9-23,74.0,57.3,44.0,53.0,48.7,43.0,97,76,44,30.08,29.96,2,0,0,0.00
2013-9-24,75.0,59.4,46.0,56.0,50.8,44.0,95,75,48,30.00,29.87,2,0,0,0.00
2013-9-25,77.0,62.2,52.0,56.0,52.3,49.0,92,73,46,29.93,29.86,3,0,0,0.00
2013-9-26,80.0,62.8,50.0,59.0,53.4,49.0,97,75,45,30.03,29.92,1,0,0,0.00
2013-9-27,83.0,64.8,50.0,58.0,51.9,48.0,95,68,32,30.11,29.98,1,0,0,0.00
2013-9-28,82.0,65.3,53.0,66.0,56.6,-99.9,95,77,52,30.01,29.85,4,1,0,0.00
2013-9-29,71.0,57.9,49.0,57.0,48.5,43.0,99,76,37,30.06,29.95,2,0,0,0.00
2013-9-30,77.0,59.4,44.0,55.0,49.1,43.0,97,73,37,29.98,29.84,2,0,0,0.00
2013-10-1,73.0,69.5,68.0,66.0,64.6,64.0,92,85,74,29.93,29.89,0,0,0,0.00
2013-10-2,81.0,70.0,61.0,68.0,63.1,53.0,98,81,52,30.03,29.91,4,0,0,0.00
2013-10-3,77.0,68.9,65.0,72.0,66.9,62.0,99,93,82,29.92,29.78,1,0,0,0.00
2013-10-4,80.0,69.4,63.0,72.0,67.2,62.0,99,93,74,29.92,29.85,2,0,0,0.00
2013-10-5,76.0,69.2,57.0,72.0,66.6,54.0,98,92,83,29.88,29.74,2,0,0,0.00
2013-10-6,57.0,49.6,43.0,54.0,43.4,39.0,95,80,56,29.79,29.72,5,1,0,0.00
2013-10-7,71.0,54.6,40.0,50.0,45.7,39.0,98,76,39,30.07,29.79,5,1,0,0.00
2013-10-8,76.0,58.9,44.0,54.0,48.5,42.0,96,72,38,30.16,30.07,2,0,0,0.00
2013-10-9,74.0,58.1,47.0,52.0,47.8,45.0,95,72,38,30.21,30.09,1,0,0,0.00
2013-10-10,75.0,59.2,45.0,61.0,51.6,43.0,95,78,51,30.14,29.99,2,0,0,0.00
2013-10-11,78.0,63.8,52.0,62.0,55.7,51.0,96,77,49,30.02,29.87,3,1,0,0.00
2013-10-12,72.0,61.6,47.0,61.0,51.3,-99.9,92,73,38,30.18,29.89,5,1,0,0.00
2013-10-13,65.0,50.6,39.0,45.0,39.0,34.0,93,69,33,30.39,30.18,3,0,0,0.00
2013-10-14,65.0,50.3,36.0,48.0,41.5,34.0,97,74,42,30.40,30.08,3,0,0,0.00
2013-10-15,69.0,56.5,48.0,62.0,50.6,41.0,96,81,64,30.09,29.75,6,1,0,0.00
2013-10-16,52.0,49.1,44.0,46.0,43.9,40.0,92,82,78,29.96,29.86,5,2,0,0.00
2013-10-17,59.0,48.7,41.0,47.0,42.8,37.0,97,82,45,29.94,29.83,4,1,0,0.00
2013-10-18,49.0,44.0,38.0,42.0,38.9,35.0,96,83,68,29.98,29.84,4,1,0,0.00
2013-10-19,55.0,45.1,36.0,40.0,35.6,-99.9,93,73,48,29.97,29.80,6,1,0,0.00
2013-10-20,67.0,50.9,39.0,47.0,42.3,36.0,94,74,44,29.86,29.70,6,0,0,0.00
2013-10-21,54.0,42.4,28.0,46.0,32.8,25.0,90,70,45,30.00,29.80,8,2,0,0.00
2013-10-22,38.0,32.1,26.0,34.0,30.1,24.0,97,93,80,30.01,29.90,1,0,0,0.00
2013-10-23,45.0,36.9,32.0,35.0,31.7,29.0,97,82,63,30.07,29.96,5,1,0,0.00
2013-10-24,42.0,35.5,28.0,34.0,28.1,24.0,94,76,53,30.35,30.06,6,2,0,0.00
2013-10-25,53.0,44.6,26.0,35.0,29.2,23.0,94,57,39,30.44,30.08,5,2,0,0.00
2013-10-26,53.0,44.1,31.0,37.0,29.9,-99.9,88,60,46,30.10,29.91,9,3,0,0.00
2013-10-27,56.0,40.9,28.0,35.0,30.5,25.0,93,70,42,30.10,29.97,4,1,0,0.00
2013-10-28,60.0,43.4,32.0,43.0,34.7,-99.9,94,76,45,30.34,30.06,5,1,0,0.00
2013-10-29,54.0,45.1,36.0,47.0,39.9,33.0,96,83,65,30.33,30.11,3,1,0,0.00
2013-10-30,61.0,53.4,49.0,58.0,52.5,47.0,99,97,90,30.11,29.75,3,0,0,0.00
2013-10-31,62.0,56.4,44.0,62.0,55.8,42.0,99,98,92,29.76,29.26,7,2,0,0.00
2013-11-1,49.0,45.0,41.0,44.0,42.4,40.0,96,91,80,29.76,29.45,5,2,0,0.00
2013-11-2,50.0,39.9,31.0,40.0,34.2,-99.9,98,84,59,30.16,29.76,6,1,0,0.00
2013-11-3,53.0,39.5,26.0,40.0,33.6,25.0,98,81,55,30.30,30.15,2,0,0,0.00
2013-11-4,57.0,49.4,41.0,46.0,41.4,36.0,88,75,60,30.22,30.06,5,1,0,0.00
2013-11-5,54.0,51.7,50.0,52.0,48.6,45.0,96,89,79,30.23,29.92,6,1,0,0.00
2013-11-6,56.0,45.5,32.0,55.0,43.5,29.0,97,92,82,30.21,29.79,9,3,0,0.00
2013-11-7,44.0,32.8,26.0,38.0,29.6,24.0,94,88,78,30.28,30.21,9,1,0,0.00
2013-11-8,49.0,39.3,26.0,36.0,30.7,25.0,95,73,48,30.35,29.93,5,1,0,0.00
2013-11-9,59.0,49.3,41.0,43.0,37.6,-99.9,79,67,52,30.18,29.88,10,5,0,0.00
2013-11-10,49.0,40.0,30.0,34.0,31.5,27.0,89,72,53,30.38,30.18,7,2,0,0.00
2013-11-11,48.0,38.7,23.0,38.0,31.5,18.0,95,76,59,30.56,30.09,7,3,0,0.00
2013-11-12,31.0,23.3,19.0,22.0,17.6,15.0,86,79,65,30.76,30.57,7,3,0,0.00
2013-11-13,42.0,29.1,16.0,23.0,18.5,13.0,90,67,43,30.66,30.19,7,2,0,0.00
2013-11-14,52.0,41.6,33.0,30.0,25.1,20.0,65,52,41,30.19,29.94,8,3,0,0.00
2013-11-15,50.0,41.9,36.0,39.0,32.2,26.0,85,69,55,29.98,29.90,3,0,0,0.00
2013-11-16,59.0,50.4,39.0,56.0,46.8,-99.9,94,90,85,29.91,29.54,7,2,0,0.00
2013-11-17,67.0,54.2,42.0,64.0,51.1,38.0,98,89,80,29.79,29.15,19,7,0,0.00
2013-11-18,44.0,38.0,29.0,39.0,31.9,26.0,90,79,60,30.28,29.80,14,7,0,0.00
2013-11-19,43.0,32.4,22.0,32.0,27.6,21.0,95,83,63,30.37,30.25,3,0,0,0.00
2013-11-20,41.0,35.3,30.0,37.0,31.9,28.0,96,87,75,30.27,30.05,1,0,0,0.00
2013-11-21,47.0,42.5,39.0,44.0,40.9,38.0,100,94,88,30.24,30.09,2,0,0,0.00
2013-11-22,41.0,34.0,24.0,39.0,31.0,22.0,96,89,79,30.52,30.23,8,4,0,0.00
2013-11-23,24.0,20.0,13.0,22.0,12.4,-99.9,92,75,55,30.77,30.50,11,5,0,0.00
2013-11-24,28.0,18.0,8.0,13.0,8.4,5.0,89,68,40,30.79,30.42,4,-11,0,0.00
2013-11-25,33.0,27.8,19.0,27.0,20.6,13.0,87,74,63,30.42,30.11,8,2,0,0.00
2013-11-26,33.0,27.6,16.0,27.0,21.1,7.0,89,77,61,30.25,30.07,11,4,0,0.00
2013-11-27,27.0,18.5,12.0,15.0,10.1,5.0,81,70,54,30.33,30.24,9,4,0,0.00
2013-11-28,35.0,25.1,16.0,21.0,16.5,13.0,90,70,54,30.53,30.19,6,1,0,0.00
2013-11-29,36.0,24.8,14.0,23.0,18.4,12.0,93,78,55,30.65,30.40,2,0,0,0.00
2013-11-30,51.0,36.7,26.0,35.0,28.0,-99.9,90,74,55,30.39,30.06,5,1,0,0.00
2013-12-1,45.0,36.0,30.0,33.0,30.0,27.0,94,80,61,30.13,29.99,1,0,0,0.00
2013-12-2,42.0,36.4,32.0,36.0,32.9,30.0,95,88,74,29.99,29.70,4,1,0,0.00
2013-12-3,46.0,41.4,37.0,46.0,40.5,36.0,99,97,95,29.70,29.62,4,1,0,0.00
2013-12-4,52.0,45.8,32.0,52.0,45.6,29.0,100,98,91,29.76,29.47,16,2,0,0.00
2013-12-5,32.0,22.5,19.0,30.0,17.6,12.0,92,81,74,30.32,29.75,14,9,0,0.00
2013-12-6,18.0,14.9,11.0,12.0,9.1,5.0,83,77,69,30.62,30.30,9,4,0,0.00
2013-12-7,18.0,10.9,5.0,8.0,3.9,-99.9,88,76,60,30.77,30.61,5,1,0,0.00
2013-12-8,22.0,18.9,12.0,21.0,15.3,6.0,95,85,74,30.66,30.01,7,2,0,0.00
2013-12-9,22.0,12.6,-1.0,21.0,8.7,-6.0,95,84,72,30.30,30.01,11,6,0,0.00
2013-12-10,22.0,12.6,-3.0,14.0,6.0,-7.0,86,75,62,30.35,30.09,14,4,0,0.00
2013-12-11,19.0,10.7,-3.0,15.0,5.9,-8.0,92,81,66,30.65,30.31,10,3,0,0.00
2013-12-12,23.0,10.3,-4.0,15.0,4.9,-9.0,87,79,70,30.63,30.26,10,2,0,0.00
2013-12-13,30.0,20.8,10.0,25.0,17.8,7.0,96,88,75,30.26,30.07,4,1,0,0.00
2013-12-14,30.0,24.8,14.0,29.0,22.2,-99.9,97,93,90,30.09,29.95,8,3,0,0.00
2013-12-15,17.0,12.6,10.0,15.0,8.4,5.0,91,83,75,30.17,30.03,10,6,0,0.00
2013-12-16,18.0,14.4,9.0,17.0,11.8,6.0,94,89,83,30.17,30.04,2,0,0,0.00
2013-12-17,34.0,25.1,18.0,28.0,21.3,15.0,95,86,70,30.18,30.03,13,7,0,0.00
2013-12-18,38.0,26.0,11.0,31.0,19.0,8.0,91,75,53,30.20,29.85,7,1,0,0.00
2013-12-19,40.0,36.0,30.0,36.0,32.5,27.0,98,87,77,29.90,29.76,5,1,0,0.00
2013-12-20,34.0,32.0,28.0,34.0,31.1,27.0,98,98,97,29.84,29.74,5,0,0,0.00
2013-12-21,32.0,28.6,27.0,31.0,26.6,-99.9,98,95,94,29.87,29.62,4,0,0,0.00
2013-12-22,33.0,27.1,19.0,32.0,25.5,17.0,97,94,90,30.20,29.62,2,0,0,0.00
2013-12-23,19.0,5.5,-1.0,17.0,2.0,-5.0,91,84,79,30.56,30.20,10,8,0,0.00
2013-12-24,19.0,4.8,-7.0,14.0,0.2,-11.0,86,81,70,30.65,30.37,5,1,0,0.00
2013-12-25,26.0,23.4,19.0,25.0,20.6,14.0,94,89,79,30.38,30.17,10,4,0,0.00
2013-12-26,36.0,27.0,14.0,32.0,22.6,11.0,92,83,75,30.32,30.18,10,2,0,0.00
2013-12-27,41.0,33.0,22.0,33.0,28.3,21.0,96,83,71,30.31,30.12,9,2,0,0.00
2013-12-28,47.0,40.0,33.0,37.0,32.0,-99.9,89,76,66,30.12,29.84,8,2,0,0.00
2013-12-29,39.0,24.3,4.0,32.0,20.9,-1.0,96,87,75,30.28,29.80,11,8,0,0.00
2013-12-30,11.0,5.1,-1.0,7.0,-0.0,-6.0,88,79,64,30.39,30.25,9,1,0,0.00
2013-12-31,14.0,8.0,-2.0,10.0,4.5,-5.0,89,86,77,30.43,30.25,5,0,0,0.00
2014-1-1,20.0,15.2,12.0,18.0,12.5,8.0,92,88,85,30.31,30.21,5,2,0,0.00
2014-1-2,14.0,9.6,-3.0,9.0,5.3,-6.0,88,83,78,30.49,30.20,10,6,0,0.00